Probability
0 0 0 0 0 0 0 0 0 0 0 6 16 23 23 19 19 13 13 19 19 48 74 90 94 100 100 100 100 100 94 90 94 94 97 94 94 94 87 84 84 84 81 71 68 68 68 65 65
0 0 0 0 0 0 0 0 0 0 3 10 23 19 23 29 32 26 26 29 32 42 65 81 100 100 100 100 94 94 90 90 90 94 87 84 87 90 87 81 81 77 65 65 58 58 58 55 55
0 0 0 0 0 0 0 0 0 3 10 10 23 35 39 39 35 32 26 35 45 45 61 87 100 100 97 94 94 94 90 90 87 84 87 87 90 87 84 77 71 68 65 61 58 58 61 55 58
0 0 0 0 0 0 0 0 6 10 16 26 29 39 39 35 42 35 29 32 45 52 74 94 100 100 97 97 97 94 90 87 84 84 87 87 87 90 84 74 65 61 55 52 52 48 42 42 48
0 0 0 0 0 0 0 3 6 6 29 35 35 39 45 42 35 39 29 35 45 55 71 90 100 94 94 90 90 87 87 87 84 84 77 81 77 77 77 77 65 55 52 52 55 48 45 45 45
0 0 0 0 0 0 0 6 3 13 19 26 42 45 48 42 39 32 23 29 42 65 74 87 90 90 87 84 84 81 81 77 74 71 77 77 81 77 77 77 71 58 52 52 55 61 48 52 52
0 0 0 0 0 0 0 6 10 13 19 32 42 52 52 32 42 42 35 39 35 65 68 71 81 81 84 81 81 81 77 71 71 68 71 71 74 68 68 77 71 71 61 55 52 55 55 55 55
0 0 0 0 0 0 0 10 16 19 23 35 45 45 48 29 29 35 45 39 32 48 58 68 68 68 71 74 74 74 71 71 68 71 68 68 68 65 68 68 71 61 61 58 65 58 61 65 68
0 0 0 0 0 3 10 13 16 26 29 32 42 45 48 35 29 32 42 42 32 42 45 52 58 58 58 61 71 71 68 68 65 65 61 61 61 48 55 61 61 68 68 58 65 61 65 61 61
0 0 0 0 0 6 10 10 13 32 23 35 52 58 52 39 32 42 42 39 32 29 35 42 52 48 45 58 61 61 58 61 58 55 61 58 35 32 42 52 61 61 61 55 55 58 61 61 42
0 0 3 3 3 3 6 6 13 29 32 35 45 58 55 52 39 42 42 32 29 26 29 29 35 29 32 35 48 45 45 52 42 45 39 26 23 16 23 16 42 52 52 42 42 45 42 32 19
0 0 6 6 0 0 3 10 13 23 39 42 55 48 55 42 45 35 42 39 32 32 32 29 23 16 10 16 29 26 29 29 26 26 26 23 13 6 0 3 13 13 6 6 6 13 16 10 3
0 0 3 0 3 6 6 13 19 26 32 45 58 52 48 48 42 42 48 42 35 35 26 29 26 23 13 13 16 26 23 26 23 19 19 19 10 6 0 0 0 0 0 0 3 3 3 6 3
0 0 3 0 0 6 10 13 13 32 39 45 52 52 42 42 42 42 39 39 35 32 32 32 29 32 23 19 19 16 19 23 10 16 16 16 6 6 3 0 0 0 0 0 0 0 0 0 0
0 0 0 0 0 3 10 13 16 26 32 45 45 48 45 42 52 52 42 42 32 39 39 39 35 26 29 23 26 29 23 13 13 13 19 16 6 6 6 6 3 0 0 0 0 0 0 0 0
3 0 0 0 0 0 3 13 13 26 29 29 42 48 48 42 45 45 45 39 32 32 32 32 39 32 26 26 29 29 26 23 23 26 19 32 19 10 10 6 6 0 0 0 0 0 0 0 0
0 0 0 0 3 0 3 13 16 19 29 32 35 45 45 39 39 39 42 39 32 32 29 32 32 32 32 32 26 26 26 19 26 26 19 23 23 10 10 6 0 0 0 0 0 0 0 0 0
0 0 0 0 0 0 3 10 19 16 23 32 32 26 35 42 32 35 39 35 32 32 29 29 32 29 26 29 29 29 23 16 16 19 19 13 10 6 6 6 6 3 3 0 0 0 0 0 0
0 0 0 0 0 3 6 10 10 10 16 26 26 26 29 32 32 32 32 32 29 29 26 29 32 29 29 29 26 26 26 19 10 16 13 10 10 10 3 3 6 6 6 0 0 0 0 0 0
0 0 0 0 3 3 3 6 6 13 10 19 19 19 29 39 35 29 26 29 32 26 26 26 23 29 29 29 26 26 19 16 10 16 10 3 3 6 3 3 3 3 3 3 0 0 0 0 0
0 0 0 0 0 3 3 3 6 10 10 10 13 19 23 32 35 26 26 29 26 26 26 26 26 29 29 29 26 19 16 16 19 3 6 6 6 6 6 3 6 6 6 6 3 0 0 0 0
0 0 0 0 0 0 0 0 6 6 10 6 13 16 19 26 26 26 23 19 29 29 29 26 29 29 29 26 23 26 16 16 16 6 6 6 6 6 6 6 3 3 0 3 3 0 0 0 0
0 0 0 0 0 0 0 0 0 6 10 13 13 13 13 19 19 19 19 23 23 26 32 29 26 26 23 23 23 26 19 6 3 3 3 6 6 6 6 6 3 3 3 3 3 0 0 0 0
0 0 0 0 0 0 0 0 0 3 6 10 10 13 10 13 23 19 16 26 26 26 26 26 26 19 19 19 19 19 16 6 3 3 3 6 6 6 6 6 6 3 3 3 3 3 0 0 0
0 0 0 0 0 0 0 0 0 3 13 10 13 19 16 13 23 23 23 23 23 26 26 23 23 19 19 19 19 19 10 6 3 6 3 3 3 6 6 3 6 3 3 3 3 0 0 0 0
0 0 0 0 0 0 0 0 0 10 13 10 10 6 23 19 26 19 23 23 16 13 19 19 19 19 16 16 16 16 6 6 6 6 6 6 3 3 3 6 3 3 3 3 0 3 3 0 0
0 0 0 0 0 0 0 0 0 10 13 10 13 16 23 26 23 16 19 13 16 19 16 16 19 16 16 16 13 10 3 3 3 3 3 3 0 0 3 0 3 3 3 3 0 3 3 0 0
0 0 0 0 0 0 0 0 0 6 6 13 6 13 10 19 16 16 16 13 13 16 16 16 16 13 13 10 6 3 0 3 3 3 3 3 0 0 0 0 0 0 0 0 3 3 3 0 0
0 0 0 0 0 0 0 0 0 3 6 3 6 10 13 16 10 3 13 13 13 16 16 16 13 13 10 10 3 3 0 3 3 3 3 0 0 0 0 0 0 0 0 0 3 3 3 0 0
0 0 0 0 0 0 0 0 0 0 3 3 6 10 10 10 3 3 3 6 13 16 16 13 6 10 10 3 3 0 3 3 3 3 3 0 0 0 0 0 0 0 0 0 0 0 0 0 0
Height
5899 5900 5901 5903 5904 5904 5904 5904 5904 5904 5904 5905 5906 5905 5906 5907 5908 5909 5907 5905 5904 5904 5903 5903 5903 5902 5902 5901 5901 5900 5900 5899 5898 5897 5896 5895 5894 5893 5892 5891 5889 5888 5887 5886 5885 5884 5883 5882 5881
5897 5898 5900 5901 5902 5902 5903 5903 5903 5903 5903 5903 5904 5904 5904 5904 5905 5905 5904 5904 5903 5903 5902 5902 5902 5901 5900 5900 5899 5899 5898 5897 5896 5895 5894 5893 5892 5891 5890 5889 5888 5886 5885 5884 5883 5882 5881 5880 5879
5895 5896 5899 5899 5900 5901 5902 5902 5901 5901 5901 5901 5902 5903 5903 5903 5903 5903 5903 5902 5902 5902 5901 5901 5900 5900 5899 5899 5898 5897 5896 5895 5894 5893 5892 5891 5890 5889 5887 5886 5885 5884 5883 5882 5881 5880 5878 5877 5877
5893 5895 5897 5898 5898 5899 5899 5900 5899 5899 5899 5900 5900 5901 5901 5902 5902 5901 5901 5901 5901 5900 5900 5899 5899 5898 5897 5897 5896 5895 5894 5893 5891 5890 5889 5888 5887 5886 5885 5884 5883 5882 5881 5879 5878 5877 5876 5875 5874
5890 5892 5894 5895 5896 5896 5897 5897 5897 5897 5897 5898 5898 5898 5899 5900 5899 5899 5899 5899 5899 5898 5898 5897 5897 5896 5896 5895 5894 5893 5891 5890 5889 5888 5886 5885 5884 5883 5882 5881 5880 5879 5878 5877 5875 5874 5873 5872 5871
5888 5890 5892 5893 5894 5894 5894 5894 5894 5895 5895 5896 5896 5896 5896 5897 5898 5898 5897 5897 5897 5896 5896 5895 5895 5894 5893 5892 5891 5890 5889 5887 5886 5885 5883 5882 5881 5880 5879 5878 5877 5876 5875 5873 5872 5871 5869 5868 5867
5886 5888 5889 5891 5892 5892 5892 5892 5892 5893 5893 5894 5894 5893 5893 5895 5895 5895 5895 5895 5895 5894 5894 5893 5892 5892 5891 5889 5888 5887 5886 5885 5883 5882 5880 5879 5878 5876 5875 5874 5873 5872 5871 5869 5868 5867 5865 5864 5863
5882 5886 5888 5889 5890 5890 5890 5889 5890 5890 5891 5892 5892 5892 5892 5892 5892 5893 5893 5892 5892 5891 5891 5890 5890 5889 5888 5886 5885 5884 5883 5881 5880 5878 5877 5875 5874 5873 5871 5870 5869 5868 5866 5865 5864 5863 5861 5860 5858
5881 5885 5886 5887 5887 5887 5887 5887 5887 5887 5888 5889 5890 5890 5890 5890 5890 5890 5890 5889 5889 5889 5888 5887 5886 5885 5884 5883 5881 5880 5879 5877 5876 5874 5873 5871 5870 5868 5867 5866 5864 5863 5862 5860 5859 5858 5856 5855 5854
5879 5882 5883 5884 5885 5885 5885 5885 5885 5885 5886 5886 5886 5887 5887 5888 5887 5887 5887 5887 5887 5886 5885 5884 5883 5882 5880 5879 5878 5876 5875 5873 5872 5870 5869 5867 5866 5864 5863 5861 5860 5858 5857 5856 5854 5853 5851 5850 5848
5877 5879 5881 5882 5882 5882 5883 5883 5884 5883 5884 5883 5883 5883 5884 5884 5884 5884 5884 5884 5883 5882 5882 5881 5880 5878 5877 5875 5874 5872 5871 5869 5868 5866 5864 5863 5861 5860 5858 5856 5855 5853 5852 5850 5849 5847 5846 5844 5843
5875 5876 5877 5879 5879 5879 5880 5880 5881 5880 5881 5880 5879 5879 5880 5881 5881 5881 5881 5881 5880 5879 5878 5877 5875 5874 5872 5871 5869 5868 5866 5865 5863 5861 5859 5858 5856 5855 5853 5851 5849 5848 5846 5845 5843 5841 5840 5838 5837
5872 5874 5875 5876 5876 5876 5877 5877 5878 5878 5877 5876 5876 5877 5877 5877 5877 5877 5877 5876 5876 5875 5874 5873 5871 5870 5868 5866 5865 5863 5862 5860 5858 5856 5855 5853 5851 5850 5848 5846 5844 5842 5840 5839 5837 5835 5834 5832 5831
5870 5871 5872 5873 5874 5874 5874 5875 5875 5874 5874 5873 5873 5873 5874 5874 5873 5873 5872 5871 5871 5870 5870 5868 5867 5865 5864 5862 5861 5859 5856 5855 5853 5851 5850 5848 5846 5844 5842 5840 5838 5836 5834 5832 5831 5829 5828 5826 5824
5867 5869 5870 5871 5871 5871 5872 5872 5872 5872 5872 5871 5871 5871 5870 5870 5870 5869 5868 5867 5866 5866 5865 5864 5862 5860 5859 5858 5856 5854 5852 5850 5848 5846 5844 5842 5840 5838 5836 5834 5832 5830 5828 5826 5824 5823 5821 5819 5818
5865 5867 5868 5868 5868 5868 5870 5869 5869 5868 5868 5868 5867 5867 5867 5866 5866 5865 5864 5863 5862 5861 5860 5859 5857 5855 5854 5853 5850 5848 5847 5845 5843 5840 5838 5836 5834 5832 5830 5828 5826 5824 5822 5820 5818 5816 5814 5812 5810
5863 5863 5864 5865 5864 5865 5865 5865 5866 5865 5865 5864 5864 5864 5864 5863 5862 5861 5860 5858 5857 5856 5855 5854 5852 5850 5849 5847 5845 5844 5841 5839 5837 5835 5833 5830 5828 5826 5823 5822 5820 5818 5816 5813 5811 5809 5807 5805 5803
5860 5860 5860 5860 5861 5861 5861 5861 5862 5861 5861 5861 5861 5861 5860 5860 5859 5858 5856 5854 5853 5852 5850 5849 5847 5845 5843 5842 5840 5839 5837 5834 5832 5829 5827 5825 5823 5820 5818 5816 5813 5811 5809 5807 5804 5802 5799 5797 5795
5857 5856 5856 5857 5857 5856 5856 5856 5857 5857 5857 5857 5856 5855 5856 5855 5855 5854 5853 5851 5849 5848 5846 5845 5843 5841 5839 5838 5836 5834 5832 5830 5827 5825 5822 5819 5817 5814 5812 5809 5807 5805 5802 5800 5797 5795 5793 5790 5788
5853 5853 5853 5853 5853 5853 5852 5852 5853 5853 5853 5852 5851 5851 5851 5851 5850 5849 5848 5847 5845 5843 5841 5839 5838 5836 5835 5833 5832 5830 5828 5825 5822 5820 5817 5814 5811 5808 5806 5803 5801 5798 5795 5793 5790 5788 5786 5783 5780
5851 5851 5850 5850 5849 5849 5849 5848 5849 5849 5847 5847 5847 5846 5846 5846 5846 5845 5844 5842 5840 5838 5836 5835 5833 5831 5830 5829 5827 5825 5823 5820 5817 5814 5811 5808 5805 5802 5799 5797 5794 5791 5789 5786 5784 5781 5779 5776 5773
5848 5848 5847 5846 5845 5844 5844 5843 5844 5843 5842 5842 5842 5841 5841 5841 5841 5840 5839 5836 5834 5833 5832 5830 5829 5828 5826 5824 5822 5820 5818 5815 5812 5809 5806 5802 5799 5796 5793 5790 5787 5785 5782 5780 5777 5775 5772 5769 5766
5845 5844 5844 5843 5841 5841 5840 5839 5840 5838 5838 5838 5837 5837 5836 5836 5836 5835 5834 5832 5830 5828 5827 5825 5824 5823 5821 5819 5817 5815 5812 5810 5806 5803 5800 5797 5793 5790 5787 5784 5781 5779 5776 5773 5771 5768 5765 5762 5760
5842 5841 5840 5839 5838 5838 5837 5836 5835 5834 5834 5833 5832 5832 5831 5831 5831 5830 5829 5827 5825 5824 5822 5820 5819 5817 5815 5814 5812 5809 5807 5804 5801 5797 5794 5791 5787 5784 5781 5778 5775 5772 5770 5767 5764 5761 5758 5756 5753
5839 5838 5837 5836 5835 5834 5834 5832 5832 5830 5830 5829 5828 5827 5827 5826 5826 5825 5824 5822 5821 5819 5817 5815 5813 5812 5810 5808 5806 5804 5801 5798 5795 5792 5788 5785 5781 5778 5775 5772 5769 5766 5764 5761 5758 5755 5752 5749 5747
5835 5835 5834 5832 5831 5831 5830 5828 5828 5826 5825 5824 5823 5822 5822 5821 5821 5820 5819 5817 5816 5814 5812 5809 5808 5807 5805 5803 5801 5798 5796 5793 5790 5786 5783 5779 5776 5773 5770 5766 5763 5760 5758 5755 5752 5749 5746 5744 5741
5832 5831 5829 5828 5827 5826 5825 5825 5824 5822 5820 5819 5818 5817 5817 5816 5815 5815 5813 5812 5811 5809 5807 5806 5804 5802 5799 5797 5795 5793 5790 5787 5784 5781 5777 5773 5770 5767 5763 5760 5758 5755 5752 5749 5746 5744 5741 5738 5736
5828 5827 5825 5824 5822 5821 5821 5820 5820 5817 5816 5814 5813 5812 5812 5811 5810 5809 5807 5806 5805 5804 5803 5801 5799 5797 5795 5792 5790 5787 5784 5781 5778 5774 5771 5767 5764 5760 5757 5753 5752 5750 5747 5744 5741 5738 5735 5733 5730
5824 5822 5820 5819 5818 5817 5815 5818 5816 5813 5812 5811 5809 5808 5807 5806 5805 5804 5803 5801 5800 5799 5797 5796 5794 5792 5790 5788 5785 5782 5779 5776 5773 5769 5766 5762 5758 5754 5752 5749 5747 5744 5742 5739 5736 5733 5730 5728 5725
5818 5817 5816 5816 5814 5813 5812 5814 5811 5809 5808 5807 5806 5804 5803 5802 5800 5799 5797 5796 5795 5794 5792 5791 5789 5787 5785 5783 5780 5777 5774 5771 5768 5764 5761 5757 5754 5750 5748 5745 5743 5740 5737 5734 5731 5728 5725 5723 5720
Wind_Speed
13 12 12 11 11 10 9 7 6 5 4 4 6 6 5 6 6 6 6 6 5 5 4 4 4 5 5 6 7 8 8 9 11 12 12 12 13 13 13 13 13 13 13 12 12 12 12 11 11
14 13 13 13 12 11 9 7 7 7 6 5 6 6 6 7 7 7 7 6 6 6 6 5 6 7 7 7 8 9 10 11 12 12 13 13 14 14 13 13 14 14 13 13 13 13 13 13 13
15 14 14 13 13 11 10 8 8 7 6 6 7 8 9 8 8 9 8 8 7 7 7 7 7 8 8 9 10 10 12 12 13 13 13 14 14 14 14 14 14 15 14 14 14 14 14 14 14
16 15 15 14 13 12 11 10 8 8 8 8 9 11 11 10 10 10 10 9 8 9 9 9 9 9 10 11 12 13 13 14 14 14 14 15 16 16 15 15 15 16 15 16 16 15 15 15 15
16 16 15 15 14 13 12 10 9 9 10 10 11 12 13 12 11 10 10 10 10 11 11 11 11 11 11 12 12 14 14 15 15 15 16 16 16 16 16 16 17 16 16 16 17 16 16 16 16
16 16 15 14 14 14 14 13 11 12 12 11 13 14 13 12 12 11 11 11 10 11 12 12 13 12 12 13 13 14 15 16 16 17 16 16 16 17 18 18 18 18 18 18 18 18 18 18 18
16 15 14 14 15 14 14 12 13 13 12 13 14 15 14 14 13 12 11 13 12 12 13 14 13 13 13 14 15 16 16 17 17 17 17 17 18 18 18 19 20 19 19 19 19 19 19 19 19
16 15 14 15 15 15 14 12 14 14 14 15 16 16 14 15 13 12 12 14 14 13 14 14 14 14 15 15 16 17 18 18 18 18 19 19 19 19 19 20 20 20 20 20 20 20 20 20 19
15 14 15 15 16 15 14 13 14 14 15 17 17 16 16 16 15 14 13 14 14 14 14 14 15 16 16 17 18 18 19 19 19 19 19 20 20 20 20 21 21 21 21 20 21 21 21 21 21
14 14 16 16 16 16 15 14 14 15 17 16 16 16 17 16 16 14 14 14 14 14 14 15 16 17 17 18 19 19 19 19 20 20 20 20 20 20 20 21 22 22 21 21 22 21 22 22 22
14 15 17 17 17 17 15 15 16 17 16 17 16 16 17 17 16 16 15 15 15 16 16 17 17 18 18 19 19 20 20 20 20 21 20 20 21 20 21 22 22 22 22 22 22 23 23 23 23
14 15 16 16 16 16 17 17 17 18 18 19 17 16 16 17 17 16 16 16 16 17 18 18 18 19 19 20 20 20 21 20 21 21 21 20 21 21 22 23 23 23 22 22 23 24 24 24 24
14 16 16 15 16 15 16 18 19 19 19 17 16 16 16 17 18 18 19 18 17 17 18 19 19 20 21 21 21 21 22 22 22 21 21 21 22 22 22 23 23 23 23 23 23 24 24 24 25
13 15 16 16 16 16 16 17 18 18 17 17 16 15 16 17 18 19 19 18 16 16 18 19 20 21 21 21 20 20 21 22 22 22 22 22 22 23 23 23 24 24 24 24 24 25 25 25 25
14 16 16 16 17 17 18 18 19 18 17 17 16 14 15 17 18 18 19 18 17 17 18 19 20 21 21 21 20 21 21 21 22 22 22 23 23 23 23 23 24 24 24 24 25 26 26 26 26
15 16 16 16 17 18 18 19 18 17 17 17 16 15 16 17 17 18 19 19 19 19 19 20 19 20 21 21 21 21 21 21 22 22 23 23 23 24 24 24 24 24 24 25 25 26 27 27 28
15 16 16 17 17 18 19 19 18 17 16 17 16 16 16 16 17 18 19 19 20 19 20 20 20 22 21 21 22 22 22 22 22 22 23 23 24 24 24 25 25 25 25 26 26 26 27 28 28
13 14 16 16 17 19 20 20 19 18 17 16 15 15 16 16 17 17 18 20 19 19 20 21 21 21 20 20 21 22 22 22 22 23 23 24 25 25 25 26 26 26 26 26 26 27 27 27 28
12 13 15 15 16 18 18 18 17 17 17 16 15 15 16 16 17 17 18 19 19 20 21 22 22 21 20 21 21 21 21 21 22 23 24 25 26 26 26 27 27 27 27 27 27 26 27 27 28
11 13 13 13 15 17 17 18 17 16 17 17 17 17 18 17 17 18 19 20 21 22 22 22 20 20 21 21 20 20 21 22 24 24 25 25 26 27 27 28 28 27 27 27 26 26 27 26 27
11 12 12 14 15 16 18 18 17 17 17 17 18 19 19 18 18 18 19 20 21 20 20 20 20 21 20 20 20 21 22 23 24 24 25 25 27 27 27 27 27 27 26 26 26 26 26 26 26
11 12 14 15 15 16 17 17 17 18 18 17 19 19 18 19 19 19 19 19 20 19 19 19 20 19 20 20 21 22 23 24 24 24 25 25 25 25 26 26 26 26 25 25 26 26 26 25 25
12 13 15 16 16 16 17 17 16 17 19 19 19 20 19 19 19 18 19 20 19 18 19 20 19 19 20 21 21 22 23 24 24 24 25 25 25 25 25 25 25 25 25 25 26 25 25 24 24
14 15 15 14 15 16 16 17 15 16 17 19 19 19 19 18 18 20 19 18 18 18 18 18 19 19 19 20 21 22 23 23 23 24 25 26 26 26 26 26 24 24 24 24 25 24 24 23 23
13 14 15 14 15 15 16 18 17 17 17 17 17 18 18 18 18 19 19 17 18 18 18 17 17 18 19 19 20 21 21 22 23 24 25 25 26 25 25 25 24 23 23 23 23 23 23 23 22
14 15 16 16 15 15 17 18 17 18 17 17 16 17 17 19 19 19 19 18 18 18 18 18 18 18 19 19 20 21 22 23 23 24 24 24 25 24 24 23 23 22 22 22 22 22 22 22 22
15 17 18 18 17 17 17 17 18 19 18 18 19 18 18 17 17 17 17 17 17 17 18 19 19 20 20 20 20 21 22 23 23 23 24 24 24 24 24 23 22 21 21 21 21 21 21 21 22
18 18 19 20 20 19 18 18 18 18 18 18 18 17 16 16 16 16 16 17 18 18 18 19 20 20 21 21 21 21 22 23 23 23 23 24 23 23 21 21 20 21 21 21 21 21 22 21 21
18 18 19 20 20 19 18 16 16 17 16 15 15 15 14 14 14 14 15 16 17 17 17 18 20 20 20 20 21 21 21 22 22 22 22 22 21 20 20 19 19 19 20 20 20 20 21 21 21
19 18 18 19 19 18 17 16 15 15 14 15 15 15 14 14 15 14 14 15 16 17 18 18 19 20 20 20 21 21 20 21 21 21 21 20 19 19 18 18 18 19 19 20 20 20 20 20 20
Wind_Direction
213 209 205 203 205 206 218 224 224 224 264 284 293 295 304 306 302 299 300 301 303 307 313 312 313 307 305 302 301 301 301 301 301 300 301 299 298 297 296 295 294 292 291 288 285 283 281 279 277
212 211 208 204 206 210 223 232 248 238 255 263 280 285 287 293 292 289 291 296 298 301 302 306 307 305 301 298 299 299 299 301 302 301 300 300 299 294 293 293 291 289 288 286 284 282 281 280 278
212 211 209 205 204 211 224 235 250 249 261 277 280 280 284 288 289 288 292 294 296 292 294 300 302 302 301 296 295 296 297 299 299 298 297 298 298 293 290 290 288 288 287 285 284 282 281 280 278
214 213 212 208 206 216 231 246 257 269 266 280 277 276 277 282 286 287 292 287 290 292 295 298 300 300 299 297 294 294 295 296 296 297 296 295 295 292 288 288 287 286 286 284 281 280 280 279 278
217 215 213 208 208 219 233 243 251 272 279 282 281 277 277 277 285 285 285 287 292 298 299 297 296 297 298 297 297 296 297 298 297 295 295 294 293 291 289 289 287 286 286 284 282 279 279 279 279
216 215 212 207 209 220 233 241 252 265 274 278 278 281 279 279 282 284 285 287 291 295 297 294 294 293 296 297 297 299 299 299 296 293 293 294 293 289 288 287 286 286 284 283 282 279 278 278 277
216 213 211 211 215 224 238 249 260 269 274 277 281 287 283 282 280 282 287 289 288 287 288 289 290 290 293 297 298 301 300 298 296 294 293 294 293 290 288 288 288 285 282 281 280 279 277 276 276
215 213 209 213 216 227 239 252 266 270 273 279 282 284 284 285 283 286 289 289 287 287 286 287 286 291 295 296 297 297 297 296 295 294 295 293 291 288 288 290 291 286 283 282 279 278 278 278 274
213 210 209 211 215 228 233 250 259 264 273 276 278 279 280 284 284 288 288 286 285 287 287 287 286 289 292 296 296 296 295 295 294 294 295 294 291 289 289 290 290 288 285 283 280 280 279 277 275
211 208 209 213 222 232 240 250 258 266 270 272 271 276 280 284 285 286 286 285 285 286 287 287 286 288 290 291 293 293 293 293 292 293 293 292 292 290 289 289 288 285 283 283 280 281 280 277 276
213 210 213 216 226 236 244 252 260 267 273 272 271 276 282 283 282 283 285 280 284 285 286 285 286 287 288 290 290 290 291 292 292 293 293 293 293 291 289 288 287 285 283 281 278 279 278 278 277
215 214 217 223 235 243 251 258 261 270 276 274 272 276 284 287 286 285 285 281 281 283 285 285 286 288 290 290 291 290 291 292 293 293 294 294 292 291 290 290 288 287 285 283 280 280 280 280 279
215 219 223 232 240 249 257 262 267 275 275 277 278 278 287 293 294 289 285 280 280 282 284 286 287 288 291 291 290 291 292 292 292 292 293 292 291 291 291 290 289 287 286 285 282 281 281 282 282
217 220 228 237 244 250 258 263 266 272 279 284 284 280 285 292 296 294 288 281 281 283 285 286 286 287 289 289 290 291 291 292 291 290 290 291 291 291 290 290 289 287 285 284 283 284 283 281 283
226 227 234 244 250 256 262 264 271 279 285 287 288 282 287 290 291 293 293 288 286 285 285 287 287 287 288 288 293 294 291 291 291 291 291 291 292 292 291 291 290 288 285 284 284 284 283 281 281
232 235 239 244 252 257 261 266 274 280 285 286 287 285 285 287 291 294 295 291 290 289 285 287 287 287 288 290 293 295 293 293 293 292 293 292 293 293 291 292 292 291 287 284 285 285 284 283 282
236 240 242 245 252 259 263 269 274 277 283 288 286 284 286 290 295 294 294 296 294 289 289 289 290 290 289 290 293 296 295 295 295 296 296 294 293 293 292 293 293 292 291 289 288 288 287 285 283
246 250 251 253 255 260 265 270 274 277 279 283 283 285 290 290 290 292 292 296 295 291 292 292 293 291 289 289 292 294 295 296 297 297 297 295 293 292 292 292 293 293 293 293 292 291 289 287 284
262 263 258 258 259 264 267 271 271 271 274 278 282 285 286 285 289 290 291 294 296 296 297 293 291 291 288 291 291 293 296 297 296 296 296 295 293 293 292 292 292 293 293 294 294 292 291 289 287
271 273 269 263 265 266 269 269 269 269 273 276 281 284 284 282 285 288 292 291 292 293 294 292 291 292 289 290 293 294 297 298 299 298 297 296 296 296 294 292 293 293 293 293 294 293 293 291 288
273 275 275 275 274 271 274 270 265 266 271 276 281 285 288 285 284 287 291 292 294 293 292 293 294 295 294 293 294 296 297 299 301 300 301 300 298 297 297 295 294 293 293 293 293 295 294 293 290
271 277 280 278 275 275 273 272 271 272 274 277 278 284 283 285 285 288 287 290 294 294 292 290 293 292 293 294 295 296 297 300 302 301 302 302 302 299 298 299 298 295 295 295 294 294 294 293 292
277 278 278 276 274 275 276 277 279 282 280 279 280 284 284 285 287 289 288 293 293 293 293 291 291 293 294 294 296 296 297 301 303 304 304 304 304 301 300 301 299 298 297 296 296 296 295 292 292
276 276 277 279 277 274 279 282 282 283 284 284 282 284 284 284 288 289 291 292 293 293 293 293 293 295 295 294 296 296 298 302 304 306 306 306 305 303 304 303 299 298 298 298 297 295 294 294 295
276 279 279 277 276 277 280 281 285 285 284 284 283 282 282 282 285 289 292 293 293 293 292 289 292 294 294 295 297 298 301 302 304 306 306 305 304 305 306 304 301 301 301 300 299 296 296 295 295
278 281 283 284 283 283 282 284 288 291 289 284 285 284 286 285 281 282 287 288 290 293 295 297 300 299 298 298 297 299 301 301 303 305 305 304 303 304 305 304 304 302 302 301 301 299 296 295 295
283 284 284 286 288 288 287 286 289 293 293 289 291 289 289 289 283 282 285 286 289 291 294 297 299 297 301 300 299 300 302 303 303 305 306 305 304 304 303 303 302 302 301 300 300 299 295 294 295
283 286 281 284 290 290 289 291 292 292 295 291 292 293 293 291 288 286 282 285 290 291 292 294 295 298 300 302 302 302 304 306 307 306 306 306 305 304 305 304 301 301 302 302 302 301 299 297 296
281 279 279 281 284 289 291 291 296 292 294 293 294 292 290 293 290 290 289 287 288 292 295 296 296 298 299 301 303 304 306 307 308 307 309 309 310 307 305 305 304 303 302 303 304 304 303 301 300
277 277 277 279 283 286 289 294 297 297 298 298 298 298 299 298 295 296 297 297 295 294 295 296 297 298 299 301 303 305 307 308 311 312 311 312 313 311 309 307 306 305 304 306 307 307 305 304 302